Torna al catalogo

STARLINK-35735

AttivoComunicazioniVLEO
NORAD 66231·PAYLOAD·🇺🇸 United States

Lanciato Oct 28, 2025 da Vandenberg Space Force Base

Loading…

Prossimi Passaggi (prossime 24 ore)

TLE

AggiornatoSource: CelesTrak SupGP

Epoca: Sep 14, 2026, 21:03 UTC

1 66231C 25244AB  26257.87756944  .00015079  00000+0  44567-3 0  2574
2 66231  53.1585  68.1760 0001235  83.7522  36.0704 15.34371943    14

Traccia STARLINK-35735 in tempo reale con AllMySat

Download on the App Store